User: anonymous   Login
Location: Fort Wayne
(41.1310°N, 85.1290°W)
Time: 17:48:42
(UTC-04:00)
Language:

Cosmos 1953 - Orbit

View from above orbital plane
View from above orbital plane
View from above satellite
View from above satellite

Ground track
Ground track

The orbit data is extracted from the following two-line orbital elements,

1 19210U 88050A   15209.44951062  .00001363  00000-0  96272-4 0  9995
2 19210 082.5195 341.5440 0015323 091.3137 268.9845 15.04046347474117
Epoch (UTC): 28 July 2015 10:47:17
Eccentricity: 0.0015323
inclination: 82.5195°
perigee height: 544 km
apogee height: 565 km
right ascension of ascending node: 341.5440°
argument of perigee: 91.3137°
revolutions per day: 15.04046347
mean anomaly at epoch: 268.9845°
orbit number at epoch: 47411

The dashed part of the orbit path shows where the satellite is in the earth's shadow,  

DLR